This is the latest recevied weather packets stored in our database for station/object DG0LHZ-10. If no packets are shown the sender has not sent any weather packets the latest 10 day(s).
| Time | Temp. | Humidity | Pressure | Rain* | Wind** | Luminosity | Snow |
|---|---|---|---|---|---|---|---|
| 1777673051 | 16.67° C | 32% | 1027.1 hPa | - | - | - | - |
| 1777672151 | 16.67° C | 32% | 1027 hPa | - | - | - | - |
| 1777671251 | 17.22° C | 32% | 1026.9 hPa | - | - | - | - |
| 1777670351 | 17.78° C | 32% | 1027 hPa | - | - | - | - |
| 1777669451 | 18.33° C | 31% | 1027.1 hPa | - | - | - | - |
| 1777668550 | 18.33° C | 31% | 1027.1 hPa | - | - | - | - |
| 1777667650 | 18.89° C | 31% | 1027.1 hPa | - | - | - | - |
| 1777666750 | 19.44° C | 29% | 1027.1 hPa | - | - | - | - |
| 1777665850 | 20° C | 30% | 1027.2 hPa | - | - | - | - |
| 1777664950 | 20.56° C | 29% | 1027.2 hPa | - | - | - | - |
| 1777664050 | 21.11° C | 29% | 1027.2 hPa | - | - | - | - |
| 1777663150 | 21.67° C | 28% | 1027.2 hPa | - | - | - | - |
| 1777662250 | 22.22° C | 28% | 1027.2 hPa | - | - | - | - |
| 1777661350 | 23.33° C | 27% | 1027.2 hPa | - | - | - | - |
| 1777660450 | 23.89° C | 26% | 1027.2 hPa | - | - | - | - |
| 1777659550 | 25° C | 26% | 1027.1 hPa | - | - | - | - |
| 1777658650 | 25.56° C | 26% | 1027 hPa | - | - | - | - |
| 1777657750 | 26.11° C | 26% | 1027 hPa | - | - | - | - |
| 1777656850 | 27.22° C | 26% | 1027 hPa | - | - | - | - |
| 1777655950 | 27.78° C | 25% | 1027.1 hPa | - | - | - | - |
| 1777655049 | 28.33° C | 25% | 1027.2 hPa | - | - | - | - |
| 1777654150 | 28.89° C | 25% | 1027.3 hPa | - | - | - | - |
| 1777653249 | 29.44° C | 25% | 1027.5 hPa | - | - | - | - |
| 1777652351 | 29.44° C | 25% | 1027.5 hPa | - | - | - | - |
| 1777651449 | 30° C | 25% | 1027.7 hPa | - | - | - | - |
* Rain since midnight (hover to see other rain measurements)
** Current wind speed in m/s (hover to see current wind gust speed)